Wind_Speed
58 56 51 47 47 45 36 32 33 28 32 30 24 34 33 40 41 39 39 39 38 36 39 37 35 33 31 28 26 26 27 29 28 26 25 24 25 23 22 22 22 23 25 25
60 57 50 50 52 44 41 39 37 35 37 30 25 21 31 35 38 43 41 43 41 41 42 39 38 36 33 32 30 31 31 32 32 31 31 30 30 27 27 26 26 28 29 27
57 55 51 51 51 46 42 36 33 35 34 36 31 27 21 23 20 34 44 42 45 43 45 43 42 41 39 36 34 35 36 36 36 35 35 33 32 30 30 31 31 31 29 30
54 55 51 49 49 48 51 49 42 31 33 38 35 37 28 24 24 25 27 41 44 48 49 48 46 44 40 38 41 40 39 37 37 37 36 35 35 34 34 35 34 33 32 32
56 54 50 47 46 46 48 46 37 42 44 40 34 42 27 24 24 25 24 22 33 49 53 52 49 45 45 47 44 43 42 40 38 37 38 38 37 38 39 37 36 35 35 35
57 55 52 49 47 46 45 43 39 40 45 51 44 44 37 24 19 23 24 26 31 39 51 54 52 50 50 50 48 45 42 42 42 41 41 41 41 40 41 39 38 37 37 36
58 57 55 54 52 49 48 46 45 43 45 50 44 45 50 36 31 30 25 21 23 32 48 55 55 55 52 50 50 48 46 46 46 45 45 44 44 43 43 41 39 38 40 40
56 55 56 54 53 49 48 47 48 48 47 45 45 45 46 33 25 28 28 29 29 30 35 52 59 58 56 51 52 50 48 48 49 49 47 46 46 45 45 43 43 41 41 43
52 55 55 56 54 53 53 52 51 52 51 49 52 51 46 41 40 36 34 35 35 35 32 44 55 56 57 53 52 52 51 50 51 51 51 49 48 47 47 47 47 45 43 43
56 61 60 58 61 61 55 52 51 51 51 51 49 49 49 48 43 39 34 31 32 34 32 35 48 54 56 55 55 55 54 53 53 54 53 53 52 51 49 50 49 49 48 47
63 60 58 63 58 56 56 56 55 54 54 54 50 49 45 45 48 47 47 41 37 36 36 37 36 49 55 57 57 56 55 56 55 55 56 56 54 52 52 53 52 52 52 49
65 64 62 57 58 56 52 51 52 56 54 52 50 46 44 45 46 48 47 47 42 39 41 43 42 39 55 54 57 55 58 59 57 57 57 57 57 56 55 54 54 54 53 52
61 62 59 58 58 61 61 59 56 50 49 48 50 45 44 45 46 47 47 46 45 38 38 41 44 44 45 57 58 56 60 61 61 61 59 58 59 58 56 56 56 55 55 55
54 53 52 52 49 45 44 42 38 38 42 41 42 42 43 39 42 40 42 41 40 41 40 42 44 44 44 48 61 65 57 58 59 61 60 61 61 60 57 55 55 57 56 56
57 53 51 51 49 47 43 40 40 44 45 47 45 46 44 46 41 44 47 47 45 44 42 42 42 44 43 42 45 63 66 58 57 59 58 59 59 57 56 56 56 57 58 58
50 51 51 52 48 48 49 50 51 48 48 50 50 51 44 46 47 46 46 46 46 45 45 45 43 44 44 44 45 46 59 63 60 59 58 57 57 58 57 56 56 57 57 57
47 48 47 45 47 48 53 49 51 49 50 48 51 45 44 47 49 48 46 45 45 43 43 44 43 43 45 47 46 48 49 57 63 55 53 55 57 56 55 54 53 53 52 51
45 46 46 45 45 49 41 47 46 47 46 47 49 53 55 46 49 52 47 43 44 43 42 42 41 40 41 46 50 50 50 52 55 57 57 55 52 51 50 47 49 50 49 49
42 48 50 50 51 46 46 48 51 51 48 47 46 43 43 44 49 51 48 47 45 43 40 40 43 43 45 47 48 51 53 52 50 51 49 50 51 53 54 52 53 53 54 51
43 45 46 46 45 44 47 50 52 49 40 42 46 45 49 49 53 41 44 46 50 46 41 40 41 40 44 47 49 51 54 57 55 54 58 61 60 57 53 52 52 53 52 50
45 49 46 45 44 46 48 51 51 48 38 38 38 43 47 51 49 45 44 45 48 49 46 44 44 45 46 45 47 50 53 54 56 58 60 60 60 59 59 59 59 60 58 58
42 44 48 48 46 48 49 54 49 32 32 40 40 40 45 48 46 41 41 41 43 45 44 42 42 45 44 44 43 45 46 48 51 54 56 57 58 59 59 59 60 60 61 65
48 46 45 47 49 49 50 50 47 37 38 36 37 40 40 37 45 45 33 32 36 41 41 42 41 41 45 45 45 45 45 44 45 46 47 48 49 51 55 59 63 65 65 65
48 47 49 46 47 51 52 47 45 43 42 40 41 44 44 46 46 42 38 40 41 42 42 43 45 48 48 48 49 49 50 50 52 53 53 54 55 55 56 56 56 56 57 59
44 47 49 50 53 51 47 48 47 45 41 40 43 43 44 44 47 52 52 51 52 53 52 51 53 54 54 53 52 52 52 52 53 53 53 53 54 55 55 56 58 59 61 63
44 43 49 51 45 48 50 51 50 48 46 48 49 48 50 52 52 51 51 51 53 54 55 54 54 55 54 53 52 51 51 51 52 53 53 53 54 54 54 56 58 60 61 62
Wind_Direction
216 221 222 223 230 231 230 242 233 232 234 237 237 233 235 237 239 233 231 235 234 232 234 230 233 231 230 229 229 231 230 229 229 234 236 236 240 244 249 255 261 268 271 274
221 221 218 223 221 223 226 232 225 230 235 239 243 241 242 241 245 239 242 232 236 234 237 234 235 235 230 232 231 232 231 231 231 233 236 238 245 250 256 260 262 267 272 275
223 225 221 224 229 227 223 223 217 230 244 244 248 252 251 251 262 245 246 247 235 236 241 237 236 236 233 231 234 236 235 233 234 236 240 245 249 253 257 260 264 269 273 275
222 223 224 226 229 230 230 234 238 231 239 245 249 248 250 251 249 261 260 244 243 241 240 240 238 237 237 235 233 235 241 242 240 242 244 247 249 253 257 260 266 268 270 271
223 225 224 226 230 232 233 237 242 238 244 243 251 255 231 244 246 248 263 273 250 242 242 242 239 237 236 237 237 236 238 241 245 246 248 248 250 252 254 258 261 265 268 271
220 222 224 225 226 228 233 235 236 235 244 247 249 254 243 235 267 256 257 267 258 249 245 238 239 239 238 238 240 242 241 242 243 245 246 251 251 253 257 258 261 265 270 273
216 219 222 223 226 228 233 238 240 236 237 246 250 255 258 260 263 260 263 262 280 263 246 242 241 240 240 241 242 242 242 242 244 244 246 248 252 255 257 259 263 266 270 272
215 220 222 228 231 235 239 241 242 245 249 251 254 254 258 258 257 262 260 258 268 273 259 250 241 240 241 241 245 245 245 245 247 248 249 251 254 258 258 260 263 264 267 272
210 217 224 224 227 231 231 235 239 243 246 247 254 256 260 258 253 264 266 274 261 264 257 249 242 239 242 241 242 245 245 246 247 250 251 253 255 258 258 260 264 266 267 269
213 216 218 222 226 228 229 232 235 238 240 242 244 250 253 257 257 262 262 273 263 260 259 255 251 234 241 243 242 242 245 247 247 249 252 254 256 259 261 263 265 269 270 271
213 217 219 222 224 226 232 233 235 238 239 242 243 242 247 250 255 256 261 264 268 267 273 273 272 248 240 245 245 245 247 251 251 252 253 254 256 259 261 263 265 267 269 270
215 216 219 223 229 230 233 234 235 236 237 242 247 243 246 247 249 253 256 257 259 260 263 264 264 266 240 244 247 247 248 250 251 253 255 257 259 260 263 265 265 266 268 269
221 225 226 226 225 226 230 233 236 238 241 240 242 234 239 242 245 245 251 254 257 255 257 262 262 261 262 247 241 245 247 251 252 253 254 257 259 260 260 262 264 266 268 269
230 231 234 237 240 244 246 248 249 249 249 250 250 235 246 246 256 258 262 263 258 257 257 261 264 261 258 255 246 241 247 248 251 252 255 257 257 259 260 263 265 266 266 268
232 234 235 235 234 231 231 232 236 239 243 244 241 239 243 244 241 243 248 251 252 255 256 258 261 263 263 266 259 247 244 250 251 253 255 257 259 261 261 262 263 265 267 269
232 235 234 234 234 236 237 237 241 244 247 252 243 245 248 252 253 252 249 246 247 253 256 255 254 256 257 258 261 260 250 248 251 252 253 255 257 259 261 263 264 266 270 272
231 234 230 229 231 233 235 242 246 250 252 259 257 251 257 256 257 260 256 252 251 249 253 257 257 256 257 257 257 259 256 252 247 252 257 258 259 260 262 261 263 266 268 272
222 226 231 233 238 243 245 244 246 249 251 254 254 254 256 260 256 257 262 257 254 250 247 251 256 259 258 256 252 252 254 255 255 256 257 258 260 261 264 267 269 270 270 273
223 222 226 229 237 243 244 244 247 252 255 256 259 257 252 255 255 253 260 264 256 248 248 249 252 252 254 254 252 250 250 252 255 256 255 258 263 265 269 269 269 272 272 275
222 226 232 236 242 246 246 247 253 257 259 257 256 251 249 252 254 254 262 262 258 246 247 248 251 255 252 252 253 252 250 251 255 258 260 261 264 266 267 268 270 273 278 276
233 236 238 241 245 248 249 257 256 258 266 265 258 256 255 258 261 254 255 258 263 259 252 250 248 252 257 258 256 256 255 256 257 259 260 262 265 267 267 267 270 273 274 276
238 241 242 244 249 248 248 253 261 262 253 255 255 248 252 255 261 260 257 260 261 260 256 252 246 248 251 258 263 264 260 259 260 261 262 263 265 267 267 268 269 267 267 271
238 240 242 244 248 254 255 256 256 251 249 247 253 251 252 255 260 258 255 251 250 256 257 252 251 254 256 256 258 260 263 264 265 266 267 266 267 267 268 268 269 269 270 272
235 236 236 238 244 246 247 253 259 257 249 243 246 251 249 249 250 248 245 246 248 250 253 255 257 256 259 260 261 262 264 265 265 265 265 265 265 266 266 267 268 269 270 271
235 235 235 235 242 243 250 252 253 252 251 248 248 248 252 254 251 253 256 258 259 259 259 259 260 262 262 263 266 268 268 269 270 270 270 269 268 266 267 268 269 270 270 271
231 231 231 236 240 242 243 246 248 250 250 250 247 246 250 253 252 253 255 256 258 261 262 263 265 267 269 271 271 271 272 272 272 272 271 270 270 270 270 270 270 269 271 272
Height
5755 5765 5773 5784 5789 5793 5797 5802 5806 5809 5810 5814 5818 5823 5826 5830 5834 5835 5840 5844 5847 5851 5850 5854 5857 5859 5862 5865 5866 5868 5870 5872 5874 5876 5877 5877 5877 5878 5878 5877 5877 5877 5875 5873
5751 5758 5769 5774 5778 5784 5791 5794 5800 5802 5804 5809 5814 5820 5821 5823 5828 5831 5833 5835 5841 5843 5844 5850 5854 5855 5857 5860 5862 5863 5865 5866 5868 5870 5871 5873 5872 5874 5875 5875 5873 5872 5871 5870
5746 5755 5762 5768 5773 5779 5785 5789 5793 5798 5800 5802 5808 5814 5816 5819 5820 5822 5826 5830 5833 5837 5839 5843 5846 5850 5851 5854 5856 5858 5858 5860 5862 5863 5865 5868 5868 5869 5870 5868 5868 5867 5866 5865
5736 5745 5753 5760 5766 5773 5777 5783 5787 5791 5794 5794 5800 5803 5809 5812 5816 5818 5820 5822 5827 5829 5831 5835 5839 5843 5847 5850 5847 5850 5854 5855 5857 5858 5860 5861 5862 5862 5861 5861 5861 5861 5859 5857
5731 5737 5747 5753 5759 5766 5771 5776 5779 5785 5787 5789 5792 5792 5807 5807 5810 5814 5815 5816 5818 5821 5823 5827 5831 5836 5839 5838 5841 5843 5845 5849 5851 5852 5853 5853 5854 5854 5852 5853 5853 5853 5852 5850
5721 5730 5737 5746 5749 5755 5761 5767 5772 5775 5780 5779 5787 5789 5793 5802 5806 5807 5807 5809 5810 5811 5813 5818 5821 5825 5828 5830 5834 5836 5839 5841 5841 5843 5843 5846 5846 5845 5844 5845 5846 5846 5845 5843
5712 5720 5728 5733 5739 5746 5752 5758 5760 5765 5768 5774 5782 5782 5783 5798 5800 5800 5801 5802 5802 5803 5804 5809 5812 5815 5819 5822 5825 5827 5829 5831 5831 5832 5834 5835 5837 5836 5836 5836 5836 5837 5835 5834
5705 5713 5721 5728 5733 5742 5745 5750 5751 5754 5762 5769 5772 5776 5781 5788 5791 5792 5793 5794 5794 5795 5796 5796 5800 5805 5808 5813 5816 5818 5820 5822 5822 5822 5824 5826 5827 5827 5828 5827 5826 5826 5825 5826
5697 5705 5711 5718 5724 5730 5732 5738 5744 5747 5751 5758 5763 5772 5776 5777 5783 5785 5784 5784 5785 5784 5784 5785 5787 5795 5799 5802 5805 5809 5809 5810 5812 5814 5814 5816 5817 5818 5817 5816 5816 5817 5817 5814
5689 5693 5701 5707 5711 5716 5725 5730 5733 5737 5740 5745 5753 5759 5765 5767 5770 5773 5774 5775 5774 5775 5775 5776 5778 5782 5788 5790 5792 5795 5798 5800 5801 5802 5804 5805 5806 5806 5806 5806 5805 5805 5806 5805
5676 5684 5691 5694 5704 5710 5715 5719 5723 5728 5730 5733 5741 5748 5755 5758 5759 5763 5765 5766 5767 5769 5768 5770 5771 5772 5777 5781 5782 5785 5787 5789 5790 5790 5791 5793 5794 5795 5795 5795 5794 5793 5793 5794
5666 5672 5681 5691 5694 5699 5703 5710 5712 5716 5721 5725 5729 5742 5746 5748 5750 5749 5750 5753 5755 5756 5757 5758 5761 5763 5765 5769 5772 5774 5775 5777 5778 5779 5780 5782 5784 5785 5785 5785 5783 5781 5780 5780
5662 5663 5671 5674 5681 5688 5695 5699 5705 5707 5707 5715 5719 5738 5732 5736 5738 5739 5738 5739 5742 5746 5747 5749 5750 5753 5755 5757 5759 5760 5763 5765 5766 5768 5768 5769 5771 5772 5772 5771 5771 5769 5769 5767
5649 5654 5664 5673 5685 5688 5690 5695 5698 5698 5697 5715 5714 5732 5728 5731 5730 5731 5729 5731 5732 5733 5736 5737 5738 5740 5742 5743 5744 5746 5747 5750 5752 5754 5755 5756 5757 5758 5758 5758 5759 5758 5756 5755
5640 5649 5659 5664 5669 5673 5676 5681 5683 5684 5698 5692 5713 5714 5718 5718 5720 5717 5716 5718 5719 5721 5724 5725 5726 5729 5730 5732 5733 5734 5736 5737 5738 5740 5741 5743 5744 5745 5745 5744 5744 5743 5742 5741
5632 5643 5648 5653 5658 5660 5663 5668 5674 5681 5688 5686 5703 5700 5711 5709 5709 5709 5707 5707 5708 5710 5709 5711 5714 5715 5717 5718 5720 5722 5724 5726 5728 5728 5729 5730 5731 5731 5731 5731 5730 5730 5729 5728
5626 5633 5638 5642 5646 5646 5646 5667 5667 5673 5677 5684 5685 5701 5692 5694 5696 5696 5695 5695 5699 5699 5696 5698 5701 5705 5706 5707 5707 5709 5711 5713 5715 5715 5716 5717 5718 5718 5718 5717 5717 5716 5715 5714
5615 5623 5628 5633 5636 5634 5658 5652 5659 5660 5666 5668 5674 5683 5682 5682 5682 5680 5682 5688 5689 5686 5684 5686 5689 5693 5695 5696 5697 5698 5700 5702 5703 5703 5704 5704 5705 5706 5705 5704 5704 5704 5702 5701
5607 5611 5615 5618 5623 5634 5636 5638 5643 5647 5656 5660 5667 5672 5666 5665 5662 5666 5672 5676 5678 5677 5676 5677 5678 5680 5682 5684 5685 5687 5688 5689 5689 5690 5691 5691 5692 5692 5692 5692 5691 5690 5689 5688
5597 5602 5607 5611 5614 5619 5619 5628 5633 5639 5649 5649 5649 5655 5652 5648 5643 5661 5659 5659 5663 5666 5667 5667 5667 5668 5669 5670 5672 5674 5675 5676 5677 5677 5678 5679 5680 5680 5680 5679 5679 5678 5677 5676
5588 5591 5596 5599 5603 5609 5613 5618 5627 5633 5640 5640 5641 5643 5643 5640 5641 5643 5643 5645 5649 5654 5656 5656 5655 5656 5658 5659 5661 5661 5662 5664 5664 5665 5666 5667 5668 5668 5667 5667 5667 5665 5664 5662
5577 5582 5587 5594 5598 5602 5607 5608 5619 5627 5625 5622 5623 5628 5632 5632 5631 5633 5631 5632 5635 5639 5645 5645 5644 5646 5647 5649 5650 5650 5650 5650 5651 5652 5653 5653 5653 5654 5653 5652 5652 5650 5649 5648
5567 5575 5581 5587 5594 5597 5599 5602 5602 5605 5610 5613 5613 5616 5618 5620 5620 5622 5621 5621 5623 5627 5631 5633 5634 5634 5635 5636 5637 5638 5639 5639 5640 5639 5639 5638 5637 5637 5636 5635 5635 5633 5632 5630
5559 5566 5570 5575 5581 5584 5587 5587 5589 5594 5598 5600 5603 5605 5605 5609 5611 5611 5611 5611 5612 5614 5617 5620 5621 5622 5622 5623 5624 5625 5626 5626 5625 5624 5623 5623 5622 5621 5619 5618 5617 5616 5615 5614
5550 5554 5561 5564 5569 5572 5572 5576 5580 5583 5586 5589 5592 5594 5596 5595 5598 5600 5600 5600 5600 5601 5603 5606 5607 5609 5609 5610 5610 5611 5610 5610 5609 5608 5608 5607 5607 5605 5604 5603 5602 5601 5599 5597
5539 5545 5548 5555 5558 5561 5565 5568 5569 5570 5573 5576 5580 5582 5584 5585 5585 5587 5588 5588 5589 5589 5590 5592 5593 5595 5595 5595 5596 5596 5595 5594 5594 5593 5592 5591 5590 5590 5589 5588 5586 5585 5584 5582